Shelbyville, IN

12:19 PM EDT on October 22, 2017 (GMT -0400)
Shelbyville Municipal

Weather History for KGEZ - October, 2013

Change the Weather History Date:

Wednesday, October 2, 2013

  Actual Average Record
Temperature  
Mean Temperature 69 °F 59 °F  
Max Temperature 76 °F 71 °F 87 °F (2014)
Min Temperature 62 °F 47 °F 30 °F (2003)
Degree Days  
Heating Degree Days 0 7  
Month to date heating degree days 0 14  
Since 1 July heating degree days 39 99  
Cooling Degree Days 4 1  
Month to date cooling degree days 4 2  
Year to date cooling degree days 1148 901  
Growing Degree Days 18 (Base 50)    
Moisture  
Dew Point 64 °F    
Average Humidity 81    
Maximum Humidity 93    
Minimum Humidity 69    
Precipitation  
Precipitation 0.00 in 0.12 in 0.31 in (2010)
Month to date precipitation 0.00 0.24  
Year to date precipitation 23.44 33.69  
Sea Level Pressure  
Sea Level Pressure 30.08 in    
Wind  
Wind Speed 3 mph (South)    
Max Wind Speed 13 mph    
Max Gust Speed 15 mph    
Visibility 6 miles    
Events      
T = Trace of Precipitation, MM = Missing Value Source: NWS Daily Summary

Daily Weather History Graph

Daily Weather History Graph

Search for Another Location

Airport or City:

Trip Planner

Search our weather history database for the weather conditions in past years. The results will help you decide how hot, cold, wet, or windy it might be!

Date:

Astronomy

Oct. 02, 2013 Rise Set
Actual Time 7:40 AM EDT 7:23 PM EDT
Civil Twilight 7:13 AM EDT 7:50 PM EDT
Nautical Twilight 6:42 AM EDT 8:21 PM EDT
Astronomical Twilight 6:11 AM EDT 8:52 PM EDT
Moon 5:13 AM EDT (10/2) 5:58 PM EDT (10/2)
Length of Visible Light 12h 36m
Length of Day
11h 43m
Waning Crescent, 6% of the Moon is Illuminated
Oct 2
Waning Crescent
Oct 4
New
Oct 11
First Quarter
Oct 18
Full
Oct 26
Last Quarter

Hourly Weather History & Observations

Time (EDT) Temp. Dew Point Humidity Pressure Visibility Wind Dir Wind Speed Gust Speed Precip Events Conditions
12:53 AM 66.0 °F 60.1 °F 81% 30.04 in 9.0 mi South 5.8 mph - N/A   Clear
1:53 AM 62.1 °F 59.0 °F 90% 30.06 in 6.0 mi South 4.6 mph - N/A   Clear
2:53 AM 64.0 °F 60.1 °F 87% 30.05 in 6.0 mi SSE 3.5 mph - N/A   Clear
3:53 AM 63.0 °F 59.0 °F 87% 30.04 in 5.0 mi South 4.6 mph - N/A   Partly Cloudy
4:41 AM 62.6 °F 60.8 °F 94% 30.06 in 3.0 mi SSW 3.5 mph - N/A   Overcast
4:53 AM 64.0 °F 61.0 °F 90% 30.05 in 4.0 mi South 4.6 mph - N/A   Overcast
5:53 AM 64.9 °F 62.1 °F 90% 30.05 in 4.0 mi South 3.5 mph - N/A   Mostly Cloudy
6:05 AM 64.4 °F 62.6 °F 94% 30.07 in 4.0 mi Calm Calm - N/A   Mostly Cloudy
6:19 AM 66.2 °F 62.6 °F 88% 30.08 in 4.0 mi Calm Calm - N/A   Overcast
6:53 AM 66.9 °F 63.0 °F 87% 30.07 in 4.0 mi Calm Calm - N/A   Overcast
7:53 AM 66.9 °F 64.0 °F 90% 30.09 in 4.0 mi Calm Calm - N/A   Overcast
8:12 AM 66.2 °F 64.4 °F 94% 30.10 in 3.0 mi SSW 3.5 mph - N/A   Overcast
8:20 AM 66.2 °F 64.4 °F 94% 30.11 in 2.0 mi SSW 3.5 mph - N/A   Overcast
8:28 AM 66.2 °F 64.4 °F 94% 30.11 in 1.5 mi SSW 4.6 mph - N/A   Overcast
8:53 AM 66.9 °F 64.0 °F 90% 30.10 in 1.2 mi South 4.6 mph - 0.01 in   Overcast
9:21 AM 68.0 °F 64.4 °F 88% 30.11 in 1.8 mi South 3.5 mph - N/A   Overcast
9:33 AM 68.0 °F 64.4 °F 88% 30.11 in 2.0 mi Calm Calm - N/A   Overcast
9:53 AM 70.0 °F 66.0 °F 87% 30.10 in 2.5 mi Calm Calm - N/A   Overcast
10:03 AM 69.8 °F 66.2 °F 88% 30.11 in 3.0 mi SSW 3.5 mph - N/A   Overcast
10:10 AM 69.8 °F 66.2 °F 88% 30.12 in 3.0 mi SSW 3.5 mph - N/A   Overcast
10:53 AM 71.1 °F 66.9 °F 87% 30.11 in 6.0 mi SSW 4.6 mph - N/A   Overcast
11:02 AM 71.6 °F 66.2 °F 83% 30.12 in 6.0 mi SSW 3.5 mph - N/A   Haze
11:16 AM 71.6 °F 66.2 °F 83% 30.12 in 7.0 mi South 3.5 mph - N/A   Overcast
11:53 AM 72.0 °F 66.0 °F 81% 30.10 in 8.0 mi Calm Calm - N/A   Overcast
12:06 PM 73.4 °F 66.2 °F 78% 30.11 in 7.0 mi Calm Calm - N/A   Overcast
12:53 PM 73.0 °F 66.0 °F 79% 30.10 in 9.0 mi Variable 3.5 mph - N/A   Overcast
1:53 PM 73.0 °F 66.0 °F 79% 30.09 in 7.0 mi Calm Calm - N/A   Overcast
2:37 PM 73.4 °F 66.2 °F 78% 30.09 in 8.0 mi South 5.8 mph - N/A   Overcast
2:53 PM 73.9 °F 66.0 °F 76% 30.08 in 8.0 mi SSE 5.8 mph - N/A   Overcast
3:53 PM 73.9 °F 66.0 °F 76% 30.07 in 8.0 mi South 4.6 mph - N/A   Overcast
4:35 PM 75.2 °F 66.2 °F 73% 30.07 in 8.0 mi South 11.5 mph - N/A   Scattered Clouds
4:53 PM 75.0 °F 64.9 °F 71% 30.05 in 9.0 mi SSE 10.4 mph - N/A   Clear
5:53 PM 75.9 °F 64.9 °F 69% 30.04 in 10.0 mi South 4.6 mph - N/A   Clear
6:53 PM 73.9 °F 66.0 °F 76% 30.05 in 9.0 mi South 3.5 mph - N/A   Clear
7:53 PM 71.1 °F 64.9 °F 81% 30.05 in 10.0 mi South 3.5 mph - N/A   Clear
8:53 PM 68.0 °F 64.0 °F 87% 30.05 in 8.0 mi SSE 3.5 mph - N/A   Clear
9:53 PM 68.0 °F 64.9 °F 90% 30.06 in 6.0 mi SSE 4.6 mph - N/A   Scattered Clouds
10:53 PM 66.9 °F 64.0 °F 90% 30.05 in 5.0 mi Calm Calm - N/A   Clear
11:53 PM 68.0 °F 64.9 °F 90% 30.05 in 5.0 mi South 3.5 mph - N/A   Clear